Location: *
(55.6049°S, 142.1985°W)
Time: 01:17:31
(UTC+00:00)

Meteor 2-21 Rocket - Pass Details

Date: 12 May 2021
Orbit: 936 x 967 km, 82.6° (Epoch: 23 June)

Event Time Altitude Azimuth Distance (km) Brightness Sun altitude
Rises 15:59:12 0° 194° (SSW) 3,691 7.2 -10.4°
Reaches altitude 10° 16:01:44 10° 195° (SSW) 2,735 6.5 -10.0°
Maximum altitude 16:07:57 69° 276° (W) 1,036 4.5 -9.2°
Drops below altitude 10° 16:14:03 10° 358° (N) 2,684 7.1 -8.4°
Sets 16:16:32 0° 360° (N) 3,618 7.8 -8.1°
